Find Starlink 1872

NORAD ID: 46742 Int'l Des: 2020-074 Owner: SPXS Country: US Constellation: starlink decayed
LEOCIRCULAR

Re-entered — Apr 15, 2023

3D地球を読み込み中...

About Starlink 1872

Starlink 1872 (NORAD 46742) is a starlink constellation satellite (v1.0) launched Oct 24, 2020 by SPXS of US. It re-entered the atmosphere on Apr 15, 2023. with a mass of 260.00 kg.

Starlink 1872について

説明を読み込み中...

高度履歴

Loading altitude history...

軌道要素

1 46742U 20074D 23105.07315455 .21675237 12225-4 27139-2 0 9990
2 46742 53.0269 316.1294 0008922 268.5675 222.3042 16.35150253138127
Epoch: Apr 15, 2023 • Age: 27934 hours

現在のステータス

Position data unavailable
打ち上げ日 Oct 24, 2020
運用期間 5.6 years
落下予定日 Apr 15, 2023
タイプ internet

技術仕様

分類 Payload
質量 260.00 kg
乾燥質量 248.00 kg
総質量 260.00 kg
長さ 0.20 m
直径 2.80 m
スパン 9.00 m
形状 Box + pan
製造者 SPXS
バスタイプ Starlink
フェーズステータス Unknown Transfer Status
所有者/国 SPXS/US

Most Searched